OpenBCM V1.07b12 (Linux)

Packet Radio Mailbox

DB0FHN

[JN59NK Nuernberg]

 Login: GUEST





  
I6KZR  > KEPLER   30.12.02 20:48l 317 Lines 15753 Bytes #999 (0) @ WW
BID : 15185_IK6WID
Read: DB0FHN GUEST
Subj: 2L Keplerian Elements #364
Path: DB0FHN<DB0RGB<DB0FSG<I4UKI<I6ZLO<IK6WID
Sent: 021230/1859Z @:IK6WID.#AP.IMAR.ITA.EU #:15185 [MONTE URANO]  FBB7.00i
From: I6KZR@IK6WID.#AP.IMAR.ITA.EU
To  : KEPLER@WW


OSCAR 7
1 07530U 74089B   02362.17888534 -.00000029  00000-0  10000-3 0  1381
2 07530 101.7700  45.4411 0012341 178.9261 181.1839 12.53563044286625
GOES 2
1 10061U 77048A   02359.35983672 -.00000305  00000-0  00000+0 0   322
2 10061  14.1180  13.8737 0014065 196.4899 163.4904  0.99401889 38282
GOES 3
1 10953U 78062A   02363.07957895 -.00000092  00000-0  00000+0 0  8726
2 10953  13.3861  17.6217 0004414 337.6713  22.3167  1.00277473 42984
GOES 6
1 14050U 83041A   02361.20537289  .00000066  00000-0  10000-3 0  4074
2 14050  10.3329  35.8606 0004000 332.7358  27.2428  1.00286086130104
OSCAR 10
1 14129U 83058B   02356.12292339 -.00000267  00000-0  10000-3 0  9077
2 14129  25.8271 174.0668 6049945 312.5642  10.0639  2.05871554118866
OSCAR 11 (UoSAT 2)
1 14781U 84021B   02363.90110086  .00002843  00000-0  40268-3 0   312
2 14781  98.1111 332.4679 0009927  21.3324 338.8295 14.77834399  8753
NOAA 10
1 16969U 86073A   02363.85573357  .00000396  00000-0  18090-3 0  6101
2 16969  98.7248 353.0870 0011715 233.0003 127.0104 14.27042865846678
GOES 7
1 17561U 87022A   02355.38651376  .00000102  00000-0  10000-3 0  7897
2 17561   7.4944  55.8496 0008079 326.4312  34.0198  1.00298198 41156
COSMOS 1861
1 18129U 87054A   02364.58096128  .00000090  00000-0  82065-4 0  1793
2 18129  82.9249 183.5174 0012766  12.0387 348.1069 13.72695212777650
EUTELSAT 1-F4 (ECS 4)
1 18351U 87078B   02352.12522730 -.00000062  00000-0  10000-3 0   233
2 18351   7.0733  58.7527 0004962 184.4653 172.0391  0.96710043 42061
NOAA 11
1 19531U 88089A   02363.86581543  .00000361  00000-0  21146-3 0  4482
2 19531  98.9081  80.3999 0011743 350.2930   9.8009 14.14512594735638
ASTRA 1A
1 19688U 88109B   02356.82543404  .00000052  00000-0  10000-3 0  5496
2 19688   1.2424  96.2799 0003229 161.5585 135.7322  1.00273958 31615
OSCAR 14 (UOSAT 3)
1 20437U 90005B   02363.18454427  .00000308  00000-0  13205-3 0  1299
2 20437  98.2792  44.2333 0011165 359.4982   0.6186 14.31219356675147
OSCAR 15 (UOSAT 4)
1 20438U 90005C   02361.55773986  .00000291  00000-0  12813-3 0  7586
2 20438  98.2539  32.0434 0010652  15.1442 345.0061 14.30182654674585
OSCAR 16 (PACSAT)
1 20439U 90005D   02362.71852714  .00000382  00000-0  15944-3 0  8303
2 20439  98.3257  55.1677 0011417   7.2262 352.9070 14.31449691675116
OSCAR 17 (DOVE)
1 20440U 90005E   02362.71748044  .00000485  00000-0  19727-3 0  7165
2 20440  98.3453  58.9390 0011543   5.5975 354.5342 14.31725909675187
OSCAR 18 (WEBERSAT)
1 20441U 90005F   02364.24000349  .00000372  00000-0  15549-3 0  9755
2 20441  98.3425  59.6457 0011907   2.7771 357.3471 14.31533057675383
OSCAR 19 (LUSAT)
1 20442U 90005G   02364.22415058  .00000368  00000-0  15370-3 0  9286
2 20442  98.3552  62.5630 0012365   1.3135 358.8075 14.31695072675437
JAS 1B (FUJI 2)
1 20480U 90013C   02362.85900547 -.00000015  00000-0  30577-4 0  4514
2 20480  99.0399 330.3526 0540980 120.9298 244.6144 12.83327021603883
HST
1 20580U 90037B   02364.45210509  .00002600  00000-0  20385-3 0  2818
2 20580  28.4681   3.5949 0004359 102.8098  24.0867 14.97591391495111
EUTELSAT 2-F1
1 20777U 90079B   02363.88046470 -.00000118  00000-0  10000-3 0    96
2 20777   3.3773  85.0294 0001628 236.2766 169.8068  1.00384072 25599
FENGYUN 1B
1 20788U 90081A   02364.51120402  .00000550  00000-0  38837-3 0  8466
2 20788  99.0198 342.1959 0015910   9.1081 351.0370 14.02133921630522
EUTELSAT 2-F2
1 21056U 91003B   02363.89428382  .00000128  00000-0  10000-3 0  6032
2 21056   2.6092  88.4131 0002415 217.3203 162.7392  1.00269142 31379
INFORMATOR 1
1 21087U 91006A   02364.05473910  .00000087  00000-0  74548-4 0  5878
2 21087  82.9413 354.8158 0036818  32.6740 327.6679 13.74921106597947
COSMOS 2123
1 21089U 91007A   02361.10564906  .00000160  00000-0  15232-3 0  4785
2 21089  82.9240 221.0430 0030837  74.5476 285.9088 13.74399034596444
ASTRA 1B
1 21139U 91015A   02354.00000000  .00000143  00000-0  10000-3 0  1552
2 21139   0.0122 319.8851 0002995  65.1991  82.5138  1.00273184 31584
METEOSAT 5 (MOP 2)
1 21140U 91015B   02363.65036304  .00000022  00000-0  10000-3 0  6563
2 21140   5.5171  70.2778 0000970 174.8988 149.9174  1.00277616 45533
NOAA 12
1 21263U 91032A   02363.86064155  .00000665  00000-0  30205-3 0  9145
2 21263  98.6207 349.3660 0012876 165.6824 194.4722 14.25044583603997
OSCAR 22 (UoSAT 5)
1 21575U 91050B   02364.51809031  .00000653  00000-0  22440-3 0  6881
2 21575  98.1364 354.1814 0006624 289.5006  70.5462 14.39117950601086
METEOR 3-5
1 21655U 91056A   02362.55779235  .00000051  00000-0  10000-3 0  4878
2 21655  82.5579  75.6159 0013158 333.8656  26.1802 13.16976982546637
UARS
1 21701U 91063B   02364.14036569  .00001358  00000-0  11971-3 0  7873
2 21701  56.9818 236.1440 0006710 108.8978 251.2687 15.02744427618131
EUTELSAT 2-F3
1 21803U 91083A   02363.05922455  .00000136  00000-0  10000-3 0  5036
2 21803   2.4701  89.6357 0002539 211.7707 198.6604  1.00268612 36483
INMARSAT 2-F3
1 21814U 91084B   02362.49032362  .00000120  00000-0  10000-3 0  5904
2 21814   1.7131  57.7049 0002407 211.9834 221.6065  1.00274371 40375
INMARSAT 2-F4
1 21940U 92021B   02357.10755977 -.00000339  00000-0  10000-3 0  5590
2 21940   2.3705  19.4226 0001162 237.3054 342.4959  1.00278479 39100
EUTELSAT 2-F4
1 22028U 92041B   02362.84798612 -.00000091  00000-0  10000-3 0  3100
2 22028   1.5895  93.1633 0005375 186.1710 110.7169  1.00271376 31256
OSCAR 23 (KITSAT 1)
1 22077U 92052B   02363.17907714 -.00000037  00000-0  10000-3 0  1432
2 22077  66.0867 233.3467 0014648 285.4589  74.4812 12.86406913487695
ASTRA 1C
1 22653U 93031A   02354.00000000  .00000143  00000-0  10000-3 0  7819
2 22653   0.0122 319.8851 0002995  65.1991  82.5058  1.00273184 30283
METEOR 2-21
1 22782U 93055A   02363.62164126  .00000167  00000-0  13796-3 0  4780
2 22782  82.5494 255.3035 0023437 126.4646 233.8693 13.83526158471048
KITSAT B
1 22825U 93061C   02364.54641263  .00000304  00000-0  13652-3 0  4503
2 22825  98.2797  31.7834 0009408  50.7983 309.4034 14.28924555482734
POSAT 1
1 22826U 93061D   02364.51444657  .00000334  00000-0  14780-3 0  2929
2 22826  98.2812  32.8444 0009940  49.0085 311.1958 14.29145751482770
ITAMSAT
1 22828U 93061F   02364.15680377  .00000295  00000-0  13153-3 0  3898
2 22828  98.2748  32.7669 0010756  30.6325 329.5483 14.29490569450926
EYESAT A
1 22829U 93061G   02364.52490621  .00000426  00000-0  18205-3 0  4138
2 22829  98.2789  33.6985 0010631  29.4279 330.7500 14.29741352482905
METEOSAT 6
1 22912U 93073B   02363.07376159  .00000070  00000-0  00000+0 0  6151
2 22912   2.5479  82.6906 0002862 207.8238 202.8288  1.00267117 31788
GOES 8
1 23051U 94022A   02360.26373866 -.00000239  00000-0  00000+0 0  5349
2 23051   0.4828 100.2918 0002373 159.6753 214.8309  1.00266681 39264
ASTRA 1D
1 23331U 94070A   02362.90693288  .00000150  00000-0  00000+0 0  7960
2 23331   0.0566 200.0786 0003606  30.3573 217.5587  1.00276769 30354
RADIO ROSTO
1 23439U 94085A   02363.82780362 -.00000041  00000-0  27545-4 0  6717
2 23439  64.8132 123.5318 0148217 125.0723 236.4203 11.27548309329872
NOAA 14
1 23455U 94089A   02363.85496775  .00000341  00000-0  20717-3 0  4683
2 23455  99.1892  16.0881 0009599  16.3440 343.8039 14.13277714412311
HIMAWARI 5 (GMS 5)
1 23522U 95011B   02362.15301858 -.00000270  00000-0  00000+0 0   286
2 23522   1.6274  82.6443 0001574 105.7388 103.3444  1.00277757 28366
HOT BIRD 1
1 23537U 95016B   02350.98339209  .00000112  00000-0  10000-3 0  5303
2 23537   0.0894  72.1866 0004167 105.4513 274.8892  1.00271885 28338
GOES 9
1 23581U 95025A   02354.75358751 -.00000058  00000-0  00000+0 0  4410
2 23581   0.5117  95.2472 0006996 240.2116 278.5179  1.00272358 27769
INMARSAT 3-F1
1 23839U 96020A   02362.74878715  .00000025  00000-0  00000+0 0  8414
2 23839   0.0618  18.2214 0005592 221.8028 190.5550  1.00274532 24694
ASTRA 1F
1 23842U 96021A   02354.00000000  .00000143  00000-0  10000-3 0  5540
2 23842   0.0122 319.8851 0002995  65.1991  82.5479  1.00273184 24510
JAS 2
1 24278U 96046B   02362.99437334  .00000004  00000-0  41638-4 0  5494
2 24278  98.5300 156.2377 0351114 350.3330   9.1170 13.52867826314333
UNAMSAT
1 24305U 96052B   02364.22125388  .00000205  00000-0  20364-3 0  6501
2 24305  82.9353 300.0161 0030518 346.7742  13.2608 13.73444651316577
INMARSAT 3-F2
1 24307U 96053A   02362.91994214 -.00000113  00000-0  00000+0 0   638
2 24307   0.0451   5.0253 0004363 268.0175 139.8497  1.00271562 23109
HOT BIRD 2
1 24665U 96067A   02350.97625740  .00000112  00000-0  10000-3 0  3364
2 24665   0.0508 231.3890 0009627  13.0081 205.5338  1.00276963 22623
INMARSAT 3-F3
1 24674U 96070A   02361.64629984  .00000050  00000-0  10000-3 0  9578
2 24674   0.0517 355.2483 0004376 280.6320 230.8074  1.00272029 22055
GOES 10
1 24786U 97019A   02361.36365196  .00000100  00000-0  00000+0 0  4775
2 24786   0.0182 239.7888 0002881  67.1991 144.0925  1.00272977 20807
INMARSAT 3-F4
1 24819U 97027A   02363.11241074 -.00000276  00000-0  10000-3 0  8598
2 24819   0.0346 305.4210 0003592 342.8869 155.5831  1.00271769 20499
FENGYUN 2A
1 24834U 97029A   02363.87585822 -.00000191  00000-0  00000+0 0  9415
2 24834   2.4466  88.8933 0001931 238.4439 172.5930  1.00268131 20338
HOT BIRD 3
1 24931U 97049A   02351.86791068  .00000112  00000-0  10000-3 0  4177
2 24931   0.0013 322.2522 0005452 322.5658 126.9331  1.00273655 19453
METEOSAT 7
1 24932U 97049B   02362.16187814  .00000005  00000-0  00000+0 0  2197
2 24932   0.1063  16.2630 0001318 231.8054 266.5978  1.00270238 19495
ASTRA 1G
1 25071U 97076A   02354.00000000  .00000143  00000-0  10000-3 0  3859
2 25071   0.0122 319.8851 0002995  65.1991  82.5033  1.00273184 18537
